CYGNUS NG-12

Last updated on Wed Mar 18 2020 00:02:11 GMT+0000 (Coordinated Universal Time)

1 44701U 19071A 20077.56678873 .00007476 00000-0 23121-3 0 9996 2 44701 51.6150 86.8544 0012070 51.7843 96.0017 15.34457436 21018
UTC large
Height (km)
Speed (km/s)
/
Latitude / Longitude
Inclination (degrees)
Orbital Period (minutes)
Azimuth
Elevation
Range (km)
Doppler Factor

Next 0 passes for location: London (51.5072 / 0.1276)

Sorry there are no passes over London.